TimeCDT,TemperatureF,Dew PointF,Humidity,Sea Level PressureIn,VisibilityMPH,Wind Direction,Wind SpeedMPH,Gust SpeedMPH,PrecipitationIn,Events,Conditions,WindDirDegrees,DateUTC
12:53 AM,27.0,19.9,75,30.36,10.0,SSE,3.5,-,N/A,,Partly Cloudy,160,2013-03-14 05:53:00
1:53 AM,27.0,21.0,78,30.33,10.0,SE,5.8,-,N/A,,Overcast,140,2013-03-14 06:53:00
2:53 AM,28.0,19.9,72,30.30,10.0,South,6.9,-,N/A,,Clear,170,2013-03-14 07:53:00
3:53 AM,28.0,19.9,72,30.28,10.0,SSE,5.8,-,N/A,,Clear,160,2013-03-14 08:53:00
4:53 AM,28.0,21.0,75,30.25,10.0,SSE,8.1,-,N/A,,Clear,160,2013-03-14 09:53:00
5:53 AM,30.0,21.9,72,30.23,10.0,South,10.4,-,N/A,,Overcast,170,2013-03-14 10:53:00
6:53 AM,30.9,23.0,72,30.21,10.0,SSE,10.4,-,N/A,,Overcast,160,2013-03-14 11:53:00
7:53 AM,32.0,24.1,73,30.22,10.0,ESE,8.1,-,N/A,,Overcast,120,2013-03-14 12:53:00
8:53 AM,34.0,24.1,67,30.20,10.0,SSE,10.4,-,0.00,,Overcast,150,2013-03-14 13:53:00
9:53 AM,37.0,26.1,65,30.16,10.0,South,16.1,-,N/A,,Scattered Clouds,180,2013-03-14 14:53:00
10:53 AM,37.9,26.1,62,30.15,10.0,South,15.0,-,0.00,,Mostly Cloudy,180,2013-03-14 15:53:00
11:53 AM,42.1,28.0,58,30.13,10.0,South,11.5,-,N/A,,Clear,170,2013-03-14 16:53:00
12:53 PM,46.0,30.0,54,30.10,10.0,South,10.4,-,N/A,,Clear,190,2013-03-14 17:53:00
1:53 PM,50.0,30.9,48,30.08,10.0,SW,4.6,-,N/A,,Clear,230,2013-03-14 18:53:00
2:53 PM,54.0,33.1,45,30.07,10.0,WNW,10.4,-,N/A,,Clear,290,2013-03-14 19:53:00
3:53 PM,55.0,34.0,45,30.07,10.0,West,5.8,-,N/A,,Clear,280,2013-03-14 20:53:00
4:53 PM,55.0,36.0,49,30.08,10.0,North,8.1,-,N/A,,Clear,350,2013-03-14 21:53:00
5:53 PM,53.1,37.0,55,30.08,10.0,North,8.1,-,N/A,,Clear,350,2013-03-14 22:53:00
6:53 PM,46.0,37.0,71,30.09,10.0,North,8.1,-,N/A,,Clear,350,2013-03-14 23:53:00
7:53 PM,39.0,33.1,79,30.12,10.0,NNW,9.2,-,N/A,,Clear,340,2013-03-15 00:53:00
8:53 PM,39.9,33.1,77,30.11,10.0,NNE,6.9,-,N/A,,Clear,20,2013-03-15 01:53:00
9:53 PM,37.0,32.0,82,30.11,10.0,NNE,5.8,-,N/A,,Clear,30,2013-03-15 02:53:00
10:53 PM,33.1,30.0,89,30.12,8.0,NW,8.1,-,N/A,,Clear,310,2013-03-15 03:53:00
11:53 PM,33.1,28.9,85,30.10,7.0,Calm,Calm,-,N/A,,Clear,0,2013-03-15 04:53:00